Location: Newark
(49.5647°N, 8.2922°E)
Time: 10:20:45
(UTC+00:00)

Transit 2A - Pass Details

Date: 27 February 2020
Orbit: 597 x 961 km, 66.7° (Epoch: 28 March)

Event Time Altitude Azimuth Distance (km) Brightness Sun altitude
Rises 18:03:39 0° 326° (NNW) 3,023 9.6 -10.2°
Reaches altitude 10° 18:06:16 10° 340° (NNW) 2,161 8.6 -10.7°
Maximum altitude 18:10:20 25° 36° (NE) 1,471 7.2 -11.3°
Enters shadow 18:13:21 16° 81° (E) 1,955 7.5 -11.8°
Drops below altitude 10° 18:14:42 10° 91° (E) 2,351 - -12.0°
Sets 18:17:40 0° 104° (ESE) 3,349 - -12.5°
